Flag Weather past 2 weeks in Ålgård, Norway

Now
43 °F

Clear.


Feels Like: 39 °F
Forecast: 42 / 46 °F
Wind: 6 mph from Southeast

Location: Stavanger / Sola

Current Time: Nov 27, 2014 at 7:49:49 AM

Latest Report: Nov 27, 2014 at 6:50 AM


Visibility: 10 mi

Pressure: 29.98 "Hg

Humidity: 71%

Dew point: 34 °F

Location of ÅlgårdLocation

Historic Weather in Ålgård — Graph

°F

Ålgård temperature yesterday

Maximum temperature yesterday: 48 °F (at 2:20 PM)
Minimum temperature yesterday: 36 °F (at 12:20 AM)
Average temperature yesterday: 42 °F

Past Weeks' High & Low Weather Summary

 TemperatureHumidityPressure
High55 °F (Nov 12, 12:50 PM)100% (Nov 23, 2:20 PM)30.48 "Hg (Nov 23, 2:20 PM)
Low30 °F (Nov 22, 5:20 AM)47% (Nov 12, 2:50 PM)29.68 "Hg (Nov 23, 8:20 PM)
Average46 °F71%30.08 "Hg
* Reported Nov 12 6:20 AM — Nov 27 6:20 AM, Ålgård, Weather by CustomWeather, © 2014

Note: Actual official high and low records may vary slightly from our data, if they occured in-between our weather recording intervals... More about our weather records

Advertising

Ålgård weather history for previous 24 hours

 ConditionsComfort  
Time TempWeatherWind HumidityBarometerVisibility
6:20 AM
Nov 27
43 °FClear.6 mph71%29.98 "Hg10 mi
5:50 AM41 °FClear.6 mph76%30.01 "Hg10 mi
4:50 AM36 °FClear.8 mph93%30.01 "Hg10 mi
3:50 AM36 °FClear.5 mph87%30.04 "Hg10 mi
2:50 AM36 °FPassing clouds.5 mph87%30.04 "HgN/A
1:50 AM36 °FClear.1 mph93%30.04 "Hg10 mi
12:50 AM36 °FClear.No wind87%30.04 "Hg10 mi
12:20 AM36 °FClear.No wind87%30.07 "Hg10 mi
11:50 PM
Nov 26
36 °FClear.1 mph87%30.07 "Hg10 mi
11:20 PM37 °FClear.No wind87%30.07 "Hg10 mi
10:50 PM37 °FClear.2 mph93%30.07 "Hg10 mi
10:20 PM37 °FClear.2 mph93%30.07 "Hg10 mi
9:50 PM39 °FClear.1 mph81%30.07 "Hg10 mi
9:20 PM37 °FClear.3 mph87%30.07 "Hg10 mi
8:50 PM37 °FClear.6 mph87%30.09 "Hg10 mi
8:20 PM37 °FClear.2 mph87%30.09 "Hg10 mi
7:50 PM39 °FClear.2 mph81%30.09 "Hg10 mi
7:20 PM41 °FClear.2 mph76%30.09 "Hg10 mi
6:50 PM39 °FPassing clouds.3 mph81%30.09 "HgN/A
6:20 PM41 °FPassing clouds.3 mph76%30.09 "HgN/A
5:50 PM45 °FPassing clouds.3 mph66%30.12 "HgN/A
5:20 PM45 °FPassing clouds.5 mph66%30.12 "HgN/A
4:50 PM46 °FPassing clouds.6 mph62%30.12 "HgN/A
4:20 PM46 °FPassing clouds.8 mph66%30.12 "HgN/A
3:50 PM48 °FPartly sunny.8 mph66%30.12 "HgN/A
3:20 PM48 °FPartly sunny.9 mph62%30.15 "HgN/A
2:50 PM48 °FPartly sunny.10 mph66%30.15 "HgN/A
2:20 PM48 °FPartly sunny.13 mph66%30.15 "HgN/A
1:50 PM46 °FPartly sunny.12 mph71%30.18 "HgN/A
1:20 PM46 °FPartly sunny.12 mph71%30.18 "HgN/A
12:50 PM46 °FPartly sunny.10 mph71%30.18 "HgN/A
12:20 PM46 °FPartly sunny.13 mph71%30.18 "HgN/A
11:50 AM46 °FPartly sunny.13 mph71%30.21 "HgN/A
11:20 AM46 °FBroken clouds.12 mph71%30.21 "HgN/A
10:50 AM45 °FScattered clouds.12 mph71%30.21 "HgN/A
10:20 AM45 °FBroken clouds.6 mph71%30.21 "HgN/A
9:50 AM45 °FScattered clouds.7 mph71%30.21 "HgN/A
9:20 AM45 °FPartly sunny.9 mph71%30.21 "HgN/A
8:50 AM45 °FPassing clouds.10 mph76%30.21 "HgN/A
8:20 AM43 °FPartly cloudy.9 mph81%30.21 "HgN/A
7:50 AM43 °FPartly cloudy.8 mph81%30.21 "HgN/A
7:20 AM41 °FPartly cloudy.9 mph87%30.21 "HgN/A
Weather by CustomWeather, © 2014

See weather overviewHow to use our weather pages